Location: Nashville
(36.1660°N, 86.7840°W)
Time: 21:33:21
(UTC-06:00)

deb Explorer IX - Visible Passes

Search period start: 22 January 2022 00:00
Search period end: 01 February 2022 00:00
Orbit: 544 x 1082 km, 38.8° (Epoch: 22 January)

Date Brightness Start Highest point End Pass type
(mag) Time Alt. Az. Time Alt. Az. Time Alt. Az.
22 Jan ? 19:00:35 10° W 19:04:30 34° SSW 19:05:54 28° S visible
23 Jan ? 18:34:52 10° W 18:38:42 34° SSW 18:42:07 14° SSE visible
24 Jan ? 18:09:07 10° W 18:12:55 34° SSW 18:16:59 10° SE visible
25 Jan ? 17:43:21 10° W 17:47:06 34° SSW 17:51:05 10° SE visible
